Regional Weather Roundup
Issued by NWS Midland/Odessa, TX

Skip options and go directly to product.
Home | Oldest Version | Next Version | Current Version | All | Text Only | Save Text | Print | Product List | Glossary On

Skip product version selection by date and time.   
200
ASUS44 KMAF 051901
RWRMAF
MIDLAND AREA WEATHER ROUNDUP
NATIONAL WEATHER SERVICE MIDLAND TX
100 PM CST THU MAR 05 2015

...IN SOUTHWEST TEXAS AND SOUTHEAST NEW MEXICO...

CITY           SKY/WX    TMP DP  RH WIND       PRES   REMARKS
ALPINE         CLOUDY    27  25  94 SE3       30.54F
ANDREWS        FAIR      34  17  49 CALM      30.54F
ARTESIA        PTSUNNY   36  21  55 CALM      30.52F
BIG SPRING     SUNNY     41  12  30 E5        30.58F WCI  38
CARLSBAD       CLOUDY    36  22  56 S10       30.52F WCI  28
DRYDEN           N/A     41  22  46 NE8       30.55F WCI  36
FORT STOCKTON  CLOUDY    32  25  75 CALM      30.56F
GUAD PASS      NOT AVBL
HOBBS          PTSUNNY   34  23  64 SE6       30.52F WCI  29
MARFA          CLOUDY    32  23  69 N8        30.47F WCI  25
MIDLAND AIRPK  SUNNY     36  14  40 N5        30.56F WCI  32
MIDLAND INTL   SUNNY     36  17  46 VRB3      30.54F
ODESSA         SUNNY     36  17  46 SE6       30.54F WCI  31
PECOS          PTSUNNY   33  26  74 W5        30.58F WCI  29
PRESIDIO       CLOUDY    44  26  47 NE10      30.49F WCI  39
SEMINOLE       SUNNY     35  17  48 SW7       30.53F WCI  29
SNYDER         SUNNY     33  12  42 CALM      30.57F
WINK           SUNNY     37  19  48 E7        30.55F WCI  32
$$
...OTHER STATIONS IN TEXAS...

CITY           SKY/WX    TMP DP  RH WIND       PRES   REMARKS
ABILENE        NOT AVBL
AMARILLO       SUNNY     39  23  52 SW14G24   30.44F WCI  31
AUSTIN         MOSUNNY   44  23  43 N23G33    30.53F WCI  35
BROWNSVILLE    CLOUDY    43  35  73 NW14G26   30.45R WCI  36
CORPUS CHRISTI NOT AVBL
DALLAS FTW     SUNNY     33  18  53 N8        30.60F WCI  26
DEL RIO        SUNNY     44  22  41 N13G22    30.59F WCI  38
EL PASO        NOT AVBL
HOUSTON INT    PTSUNNY   45  32  60 N21G28    30.45F WCI  37
LUBBOCK        MOSUNNY   34  17  50 SW9       30.50F WCI  27
SAN ANGELO     NOT AVBL
SAN ANTONIO    NOT AVBL
WACO           NOT AVBL
WICHITA FALLS  NOT AVBL
$$
...OTHER LOCATIONS IN NEW MEXICO...

CITY           SKY/WX    TMP DP  RH WIND       PRES   REMARKS
ALAMAGORDO     SUNNY     41  23  48 W3        30.44F
ALBUQUERQUE    NOT AVBL
CANNON AFB     NOT AVBL
CLOVIS         SUNNY     36  21  55 SW14      30.43F WCI  27
HOLLOMAN AFB   NOT AVBL
ROSWELL        NOT AVBL
RUIDOSO        SUNNY     30  28  93 NW3       30.39S
SANTA FE       SUNNY     40   4  22 N12       30.35F WCI  33
TRUTH OR CONSE SUNNY     44  18  35 VRB3      30.40F
TUCUMCARI      SUNNY     38  25  59 SW9       30.39F WCI  31
$$

USA.gov is the U.S. government's official web portal to all federal, state and local government web resources and services.